owner,sensor,date,latitude,longitude,air_pressure(mBar),qcFlag 
TABS,ioos:station:wmo:42043:1,2013-03-01T00:00:00Z,28.9818,-94.9186,1021.72,11111222 
TABS,ioos:station:wmo:42043:1,2013-03-01T00:30:00Z,28.9818,-94.9186,1021.94,11111222 
TABS,ioos:station:wmo:42043:1,2013-03-01T01:00:00Z,28.9818,-94.9186,1022.2,11111222 
TABS,ioos:station:wmo:42043:1,2013-03-01T01:30:00Z,28.9818,-94.9186,1022.33,11111222 
TABS,ioos:station:wmo:42043:1,2013-03-01T02:00:00Z,28.9818,-94.9186,1022.47,11111222 
TABS,ioos:station:wmo:42043:1,2013-03-01T02:30:00Z,28.9818,-94.9186,1022.81,11111222 
TABS,ioos:station:wmo:42043:1,2013-03-01T03:00:00Z,28.9818,-94.9186,1023.05,11111222 
TABS,ioos:station:wmo:42043:1,2013-03-01T03:30:00Z,28.9818,-94.9186,1023.09,11111222 
TABS,ioos:station:wmo:42043:1,2013-03-01T04:00:00Z,28.9818,-94.9186,1023.25,11111222 
TABS,ioos:station:wmo:42043:1,2013-03-01T04:30:00Z,28.9818,-94.9186,1023.3,11111222 
TABS,ioos:station:wmo:42043:1,2013-03-01T05:00:00Z,28.9818,-94.9186,1023.22,11111222 
TABS,ioos:station:wmo:42043:1,2013-03-01T05:30:00Z,28.9818,-94.9186,1022.74,11111222 
TABS,ioos:station:wmo:42043:1,2013-03-01T06:00:00Z,28.9818,-94.9186,1022.39,11111222 
TABS,ioos:station:wmo:42043:1,2013-03-01T06:30:00Z,28.9818,-94.9186,1022.85,11111222 
TABS,ioos:station:wmo:42043:1,2013-03-01T07:00:00Z,28.9818,-94.9186,1023.35,11111222 
TABS,ioos:station:wmo:42043:1,2013-03-01T07:30:00Z,28.9818,-94.9186,1023.48,11111222 
TABS,ioos:station:wmo:42043:1,2013-03-01T08:00:00Z,28.9818,-94.9186,1023.37,11111222 
TABS,ioos:station:wmo:42043:1,2013-03-01T08:30:00Z,28.9818,-94.9186,1022.9,11111222 
TABS,ioos:station:wmo:42043:1,2013-03-01T09:00:00Z,28.9818,-94.9186,1022.43,11111222 
TABS,ioos:station:wmo:42043:1,2013-03-01T09:30:00Z,28.9818,-94.9186,1022.43,11111222 
TABS,ioos:station:wmo:42043:1,2013-03-01T10:00:00Z,28.9818,-94.9186,1022.4,11111222 
TABS,ioos:station:wmo:42043:1,2013-03-01T10:30:00Z,28.9818,-94.9186,1022.42,11111222 
TABS,ioos:station:wmo:42043:1,2013-03-01T11:00:00Z,28.9818,-94.9186,1022.65,11111222 
TABS,ioos:station:wmo:42043:1,2013-03-01T11:30:00Z,28.9818,-94.9186,1023.14,11111222 
TABS,ioos:station:wmo:42043:1,2013-03-01T12:00:00Z,28.9818,-94.9186,1023.0,11111222 
TABS,ioos:station:wmo:42043:1,2013-03-01T12:30:00Z,28.9818,-94.9186,1023.26,11111222 
TABS,ioos:station:wmo:42043:1,2013-03-01T13:00:00Z,28.9818,-94.9186,1023.5,11111222 
TABS,ioos:station:wmo:42043:1,2013-03-01T13:30:00Z,28.9818,-94.9186,1023.82,11111222 
TABS,ioos:station:wmo:42043:1,2013-03-01T14:00:00Z,28.9818,-94.9186,1024.32,11111222 
TABS,ioos:station:wmo:42043:1,2013-03-01T14:30:00Z,28.9818,-94.9186,1024.71,11111222 
TABS,ioos:station:wmo:42043:1,2013-03-01T15:00:00Z,28.9818,-94.9186,1025.0,11111222 
TABS,ioos:station:wmo:42043:1,2013-03-01T15:30:00Z,28.9818,-94.9186,1025.03,11111222 
TABS,ioos:station:wmo:42043:1,2013-03-01T16:00:00Z,28.9818,-94.9186,1024.98,11111222 
TABS,ioos:station:wmo:42043:1,2013-03-01T16:30:00Z,28.9818,-94.9186,1025.11,11111222 
TABS,ioos:station:wmo:42043:1,2013-03-01T17:00:00Z,28.9818,-94.9186,1024.85,11111222 
TABS,ioos:station:wmo:42043:1,2013-03-01T17:30:00Z,28.9818,-94.9186,1024.58,11111222 
TABS,ioos:station:wmo:42043:1,2013-03-01T18:00:00Z,28.9818,-94.9186,1024.29,11111222 
TABS,ioos:station:wmo:42043:1,2013-03-01T18:30:00Z,28.9818,-94.9186,1023.65,11111222 
TABS,ioos:station:wmo:42043:1,2013-03-01T19:00:00Z,28.9818,-94.9186,1023.11,11111222 
TABS,ioos:station:wmo:42043:1,2013-03-01T19:30:00Z,28.9818,-94.9186,1022.47,11111222 
TABS,ioos:station:wmo:42043:1,2013-03-01T20:00:00Z,28.9818,-94.9186,1022.09,11111222 
TABS,ioos:station:wmo:42043:1,2013-03-01T20:30:00Z,28.9818,-94.9186,1021.74,11111222 
TABS,ioos:station:wmo:42043:1,2013-03-01T21:00:00Z,28.9818,-94.9186,1021.54,11111222 
TABS,ioos:station:wmo:42043:1,2013-03-01T21:30:00Z,28.9818,-94.9186,1021.29,11111222 
TABS,ioos:station:wmo:42043:1,2013-03-01T22:00:00Z,28.9818,-94.9186,1021.2,11111222 
TABS,ioos:station:wmo:42043:1,2013-03-01T22:30:00Z,28.9818,-94.9186,1020.95,11111222 
TABS,ioos:station:wmo:42043:1,2013-03-01T23:00:00Z,28.9818,-94.9186,1020.74,11111222 
TABS,ioos:station:wmo:42043:1,2013-03-01T23:30:00Z,28.9818,-94.9186,1021.05,11111222 
TABS,ioos:station:wmo:42043:1,2013-03-02T00:00:00Z,28.9818,-94.9186,1021.08,11111222 
TABS,ioos:station:wmo:42043:1,2013-03-02T00:30:00Z,28.9818,-94.9186,1021.23,11111222 
TABS,ioos:station:wmo:42043:1,2013-03-02T01:00:00Z,28.9818,-94.9186,1021.32,11111222 
TABS,ioos:station:wmo:42043:1,2013-03-02T01:30:00Z,28.9818,-94.9186,1021.6,11111222 
TABS,ioos:station:wmo:42043:1,2013-03-02T02:00:00Z,28.9818,-94.9186,1022.08,11111222 
TABS,ioos:station:wmo:42043:1,2013-03-02T02:30:00Z,28.9818,-94.9186,1022.83,11111222 
TABS,ioos:station:wmo:42043:1,2013-03-02T03:00:00Z,28.9818,-94.9186,1023.41,11111222 
TABS,ioos:station:wmo:42043:1,2013-03-02T03:30:00Z,28.9818,-94.9186,1023.31,11111222 
TABS,ioos:station:wmo:42043:1,2013-03-02T04:00:00Z,28.9818,-94.9186,1023.75,11111222 
TABS,ioos:station:wmo:42043:1,2013-03-02T04:30:00Z,28.9818,-94.9186,1023.22,11111222 
TABS,ioos:station:wmo:42043:1,2013-03-02T05:00:00Z,28.9818,-94.9186,1023.38,11111222 
TABS,ioos:station:wmo:42043:1,2013-03-02T05:30:00Z,28.9818,-94.9186,1023.37,11111222 
TABS,ioos:station:wmo:42043:1,2013-03-02T06:00:00Z,28.9818,-94.9186,1023.39,11111222 
TABS,ioos:station:wmo:42043:1,2013-03-02T06:30:00Z,28.9818,-94.9186,1023.72,11111222 
TABS,ioos:station:wmo:42043:1,2013-03-02T07:00:00Z,28.9818,-94.9186,1024.62,11111222 
TABS,ioos:station:wmo:42043:1,2013-03-02T07:30:00Z,28.9818,-94.9186,1023.87,11111222 
TABS,ioos:station:wmo:42043:1,2013-03-02T08:00:00Z,28.9818,-94.9186,1023.97,11111222 
TABS,ioos:station:wmo:42043:1,2013-03-02T08:30:00Z,28.9818,-94.9186,1023.68,11111222 
TABS,ioos:station:wmo:42043:1,2013-03-02T09:00:00Z,28.9818,-94.9186,1023.64,11111222 
TABS,ioos:station:wmo:42043:1,2013-03-02T09:30:00Z,28.9818,-94.9186,1023.63,11111222 
TABS,ioos:station:wmo:42043:1,2013-03-02T10:00:00Z,28.9818,-94.9186,1023.83,11111222 
TABS,ioos:station:wmo:42043:1,2013-03-02T10:30:00Z,28.9818,-94.9186,1023.9,11111222 
TABS,ioos:station:wmo:42043:1,2013-03-02T11:00:00Z,28.9818,-94.9186,1023.84,11111222 
TABS,ioos:station:wmo:42043:1,2013-03-02T11:30:00Z,28.9818,-94.9186,1024.24,11111222 
TABS,ioos:station:wmo:42043:1,2013-03-02T12:00:00Z,28.9818,-94.9186,1024.89,11111222 
TABS,ioos:station:wmo:42043:1,2013-03-02T12:30:00Z,28.9818,-94.9186,1025.3,11111222 
TABS,ioos:station:wmo:42043:1,2013-03-02T13:00:00Z,28.9818,-94.9186,1025.38,11111222 
TABS,ioos:station:wmo:42043:1,2013-03-02T13:30:00Z,28.9818,-94.9186,1025.69,11111222 
TABS,ioos:station:wmo:42043:1,2013-03-02T14:00:00Z,28.9818,-94.9186,1026.28,11111222 
TABS,ioos:station:wmo:42043:1,2013-03-02T14:30:00Z,28.9818,-94.9186,1026.57,11111222 
TABS,ioos:station:wmo:42043:1,2013-03-02T15:00:00Z,28.9818,-94.9186,1026.77,11111222 
TABS,ioos:station:wmo:42043:1,2013-03-02T15:30:00Z,28.9818,-94.9186,1027.19,11111222 
TABS,ioos:station:wmo:42043:1,2013-03-02T16:00:00Z,28.9818,-94.9186,1027.29,11111222 
TABS,ioos:station:wmo:42043:1,2013-03-02T16:30:00Z,28.9818,-94.9186,1027.13,11111222 
TABS,ioos:station:wmo:42043:1,2013-03-02T17:00:00Z,28.9818,-94.9186,1027.01,11111222 
TABS,ioos:station:wmo:42043:1,2013-03-02T17:30:00Z,28.9818,-94.9186,1026.99,11111222 
TABS,ioos:station:wmo:42043:1,2013-03-02T18:00:00Z,28.9818,-94.9186,1026.3,11111222 
TABS,ioos:station:wmo:42043:1,2013-03-02T18:30:00Z,28.9818,-94.9186,1025.9,11111222 
TABS,ioos:station:wmo:42043:1,2013-03-02T19:00:00Z,28.9818,-94.9186,1025.39,11111222 
TABS,ioos:station:wmo:42043:1,2013-03-02T19:30:00Z,28.9818,-94.9186,1024.66,11111222 
TABS,ioos:station:wmo:42043:1,2013-03-02T20:00:00Z,28.9818,-94.9186,1024.56,11111222 
TABS,ioos:station:wmo:42043:1,2013-03-02T20:30:00Z,28.9818,-94.9186,1024.02,11111222 
TABS,ioos:station:wmo:42043:1,2013-03-02T21:00:00Z,28.9818,-94.9186,1024.0,11111222 
TABS,ioos:station:wmo:42043:1,2013-03-02T21:30:00Z,28.9818,-94.9186,1023.79,11111222 
TABS,ioos:station:wmo:42043:1,2013-03-02T22:00:00Z,28.9818,-94.9186,1023.36,11111222 
TABS,ioos:station:wmo:42043:1,2013-03-02T22:30:00Z,28.9818,-94.9186,1023.76,11111222 
TABS,ioos:station:wmo:42043:1,2013-03-02T23:00:00Z,28.9818,-94.9186,1023.85,11111222 
TABS,ioos:station:wmo:42043:1,2013-03-02T23:30:00Z,28.9818,-94.9186,1023.79,11111222 
TABS,ioos:station:wmo:42043:1,2013-03-03T00:00:00Z,28.9818,-94.9186,1023.87,11111222 
TABS,ioos:station:wmo:42043:1,2013-03-03T00:30:00Z,28.9818,-94.9186,1024.83,11111222 
TABS,ioos:station:wmo:42043:1,2013-03-03T01:00:00Z,28.9818,-94.9186,1025.21,11111222 
TABS,ioos:station:wmo:42043:1,2013-03-03T01:30:00Z,28.9818,-94.9186,1025.33,11111222 
TABS,ioos:station:wmo:42043:1,2013-03-03T02:00:00Z,28.9818,-94.9186,1025.31,11111222 
TABS,ioos:station:wmo:42043:1,2013-03-03T02:30:00Z,28.9818,-94.9186,1025.42,11111222 
TABS,ioos:station:wmo:42043:1,2013-03-03T03:00:00Z,28.9818,-94.9186,1025.81,11111222 
TABS,ioos:station:wmo:42043:1,2013-03-03T03:30:00Z,28.9818,-94.9186,1025.88,11111222 
TABS,ioos:station:wmo:42043:1,2013-03-03T04:00:00Z,28.9818,-94.9186,1025.86,11111222 
TABS,ioos:station:wmo:42043:1,2013-03-03T04:30:00Z,28.9818,-94.9186,1025.71,11111222 
TABS,ioos:station:wmo:42043:1,2013-03-03T05:00:00Z,28.9818,-94.9186,1025.85,11111222 
TABS,ioos:station:wmo:42043:1,2013-03-03T05:30:00Z,28.9818,-94.9186,1025.74,11111222 
TABS,ioos:station:wmo:42043:1,2013-03-03T06:00:00Z,28.9818,-94.9186,1025.57,11111222 
TABS,ioos:station:wmo:42043:1,2013-03-03T06:30:00Z,28.9818,-94.9186,1025.66,11111222 
TABS,ioos:station:wmo:42043:1,2013-03-03T07:00:00Z,28.9818,-94.9186,1025.63,11111222 
TABS,ioos:station:wmo:42043:1,2013-03-03T07:30:00Z,28.9818,-94.9186,1025.55,11111222 
TABS,ioos:station:wmo:42043:1,2013-03-03T08:00:00Z,28.9818,-94.9186,1025.25,11111222 
TABS,ioos:station:wmo:42043:1,2013-03-03T08:30:00Z,28.9818,-94.9186,1024.96,11111222 
TABS,ioos:station:wmo:42043:1,2013-03-03T09:00:00Z,28.9818,-94.9186,1024.61,11111222 
TABS,ioos:station:wmo:42043:1,2013-03-03T09:30:00Z,28.9818,-94.9186,1024.46,11111222 
TABS,ioos:station:wmo:42043:1,2013-03-03T10:00:00Z,28.9818,-94.9186,1023.96,11111222 
TABS,ioos:station:wmo:42043:1,2013-03-03T10:30:00Z,28.9818,-94.9186,1024.16,11111222 
TABS,ioos:station:wmo:42043:1,2013-03-03T11:00:00Z,28.9818,-94.9186,1024.54,11111222 
TABS,ioos:station:wmo:42043:1,2013-03-03T11:30:00Z,28.9818,-94.9186,1024.94,11111222 
TABS,ioos:station:wmo:42043:1,2013-03-03T12:00:00Z,28.9818,-94.9186,1024.83,11111222 
TABS,ioos:station:wmo:42043:1,2013-03-03T12:30:00Z,28.9818,-94.9186,1025.0,11111222 
TABS,ioos:station:wmo:42043:1,2013-03-03T13:00:00Z,28.9818,-94.9186,1025.05,11111222 
TABS,ioos:station:wmo:42043:1,2013-03-03T13:30:00Z,28.9818,-94.9186,1025.46,11111222 
TABS,ioos:station:wmo:42043:1,2013-03-03T14:00:00Z,28.9818,-94.9186,1025.88,11111222 
TABS,ioos:station:wmo:42043:1,2013-03-03T14:30:00Z,28.9818,-94.9186,1025.86,11111222 
TABS,ioos:station:wmo:42043:1,2013-03-03T15:00:00Z,28.9818,-94.9186,1025.7,11111222 
TABS,ioos:station:wmo:42043:1,2013-03-03T15:30:00Z,28.9818,-94.9186,1025.75,11111222 
TABS,ioos:station:wmo:42043:1,2013-03-03T16:00:00Z,28.9818,-94.9186,1025.75,11111222 
TABS,ioos:station:wmo:42043:1,2013-03-03T16:30:00Z,28.9818,-94.9186,1025.72,11111222 
TABS,ioos:station:wmo:42043:1,2013-03-03T17:00:00Z,28.9818,-94.9186,1025.39,11111222 
TABS,ioos:station:wmo:42043:1,2013-03-03T17:30:00Z,28.9818,-94.9186,1024.94,11111222 
TABS,ioos:station:wmo:42043:1,2013-03-03T18:00:00Z,28.9818,-94.9186,1024.52,11111222 
TABS,ioos:station:wmo:42043:1,2013-03-03T18:30:00Z,28.9818,-94.9186,1024.01,11111222 
TABS,ioos:station:wmo:42043:1,2013-03-03T19:00:00Z,28.9818,-94.9186,1023.3,11111222 
TABS,ioos:station:wmo:42043:1,2013-03-03T19:30:00Z,28.9818,-94.9186,1022.58,11111222 
TABS,ioos:station:wmo:42043:1,2013-03-03T20:00:00Z,28.9818,-94.9186,1022.19,11111222 
TABS,ioos:station:wmo:42043:1,2013-03-03T20:30:00Z,28.9818,-94.9186,1021.59,11111222 
TABS,ioos:station:wmo:42043:1,2013-03-03T21:00:00Z,28.9818,-94.9186,1021.21,11111222 
TABS,ioos:station:wmo:42043:1,2013-03-03T21:30:00Z,28.9818,-94.9186,1020.92,11111222 
TABS,ioos:station:wmo:42043:1,2013-03-03T22:00:00Z,28.9818,-94.9186,1020.65,11111222 
TABS,ioos:station:wmo:42043:1,2013-03-03T22:30:00Z,28.9818,-94.9186,1020.83,11111222 
TABS,ioos:station:wmo:42043:1,2013-03-03T23:00:00Z,28.9818,-94.9186,1020.59,11111222 
TABS,ioos:station:wmo:42043:1,2013-03-03T23:30:00Z,28.9818,-94.9186,1020.28,11111222 
TABS,ioos:station:wmo:42043:1,2013-03-04T00:00:00Z,28.9818,-94.9186,1020.18,11111222 
TABS,ioos:station:wmo:42043:1,2013-03-04T00:30:00Z,28.9818,-94.9186,1019.4,11111222 
TABS,ioos:station:wmo:42043:1,2013-03-04T01:00:00Z,28.9818,-94.9186,1019.18,11111222 
TABS,ioos:station:wmo:42043:1,2013-03-04T01:30:00Z,28.9818,-94.9186,1019.17,11111222 
TABS,ioos:station:wmo:42043:1,2013-03-04T02:00:00Z,28.9818,-94.9186,1019.43,11111222 
TABS,ioos:station:wmo:42043:1,2013-03-04T02:30:00Z,28.9818,-94.9186,1019.35,11111222 
TABS,ioos:station:wmo:42043:1,2013-03-04T03:00:00Z,28.9818,-94.9186,1018.84,11111222 
TABS,ioos:station:wmo:42043:1,2013-03-04T03:30:00Z,28.9818,-94.9186,1018.45,11111222 
TABS,ioos:station:wmo:42043:1,2013-03-04T04:00:00Z,28.9818,-94.9186,1018.4,11111222 
TABS,ioos:station:wmo:42043:1,2013-03-04T04:30:00Z,28.9818,-94.9186,1018.36,11111222 
TABS,ioos:station:wmo:42043:1,2013-03-04T05:00:00Z,28.9818,-94.9186,1017.71,11111222 
TABS,ioos:station:wmo:42043:1,2013-03-04T05:30:00Z,28.9818,-94.9186,1017.13,11111222 
TABS,ioos:station:wmo:42043:1,2013-03-04T06:00:00Z,28.9818,-94.9186,1016.98,11111222 
TABS,ioos:station:wmo:42043:1,2013-03-04T06:30:00Z,28.9818,-94.9186,1016.83,11111222 
TABS,ioos:station:wmo:42043:1,2013-03-04T07:00:00Z,28.9818,-94.9186,1016.61,11111222 
TABS,ioos:station:wmo:42043:1,2013-03-04T07:30:00Z,28.9818,-94.9186,1016.4,11111222 
TABS,ioos:station:wmo:42043:1,2013-03-04T08:00:00Z,28.9818,-94.9186,1016.11,11111222 
TABS,ioos:station:wmo:42043:1,2013-03-04T08:30:00Z,28.9818,-94.9186,1015.48,11111222 
TABS,ioos:station:wmo:42043:1,2013-03-04T09:00:00Z,28.9818,-94.9186,1015.14,11111222 
TABS,ioos:station:wmo:42043:1,2013-03-04T09:30:00Z,28.9818,-94.9186,1014.68,11111222 
TABS,ioos:station:wmo:42043:1,2013-03-04T10:00:00Z,28.9818,-94.9186,1014.91,11111222 
TABS,ioos:station:wmo:42043:1,2013-03-04T10:30:00Z,28.9818,-94.9186,1014.96,11111222 
TABS,ioos:station:wmo:42043:1,2013-03-04T11:00:00Z,28.9818,-94.9186,1014.6,11111222 
TABS,ioos:station:wmo:42043:1,2013-03-04T11:30:00Z,28.9818,-94.9186,1014.49,11111222 
TABS,ioos:station:wmo:42043:1,2013-03-04T12:00:00Z,28.9818,-94.9186,1014.17,11111222 
TABS,ioos:station:wmo:42043:1,2013-03-04T12:30:00Z,28.9818,-94.9186,1014.11,11111222 
TABS,ioos:station:wmo:42043:1,2013-03-04T13:00:00Z,28.9818,-94.9186,1013.86,11111222 
TABS,ioos:station:wmo:42043:1,2013-03-04T13:30:00Z,28.9818,-94.9186,1014.04,11111222 
TABS,ioos:station:wmo:42043:1,2013-03-04T14:00:00Z,28.9818,-94.9186,1014.29,11111222 
TABS,ioos:station:wmo:42043:1,2013-03-04T14:30:00Z,28.9818,-94.9186,1014.34,11111222 
TABS,ioos:station:wmo:42043:1,2013-03-04T15:00:00Z,28.9818,-94.9186,1014.48,11111222 
TABS,ioos:station:wmo:42043:1,2013-03-04T15:30:00Z,28.9818,-94.9186,1014.33,11111222 
TABS,ioos:station:wmo:42043:1,2013-03-04T16:00:00Z,28.9818,-94.9186,1013.91,11111222 
TABS,ioos:station:wmo:42043:1,2013-03-04T16:30:00Z,28.9818,-94.9186,1013.9,11111222 
TABS,ioos:station:wmo:42043:1,2013-03-04T17:00:00Z,28.9818,-94.9186,1014.05,11111222 
TABS,ioos:station:wmo:42043:1,2013-03-04T17:30:00Z,28.9818,-94.9186,1013.79,11111222 
TABS,ioos:station:wmo:42043:1,2013-03-04T18:00:00Z,28.9818,-94.9186,1013.72,11111222 
TABS,ioos:station:wmo:42043:1,2013-03-04T18:30:00Z,28.9818,-94.9186,1012.97,11111222 
TABS,ioos:station:wmo:42043:1,2013-03-04T19:00:00Z,28.9818,-94.9186,1012.73,11111222 
TABS,ioos:station:wmo:42043:1,2013-03-04T19:30:00Z,28.9818,-94.9186,1012.06,11111222 
TABS,ioos:station:wmo:42043:1,2013-03-04T20:00:00Z,28.9818,-94.9186,1011.7,11111222 
TABS,ioos:station:wmo:42043:1,2013-03-04T20:30:00Z,28.9818,-94.9186,1011.26,11111222 
TABS,ioos:station:wmo:42043:1,2013-03-04T21:00:00Z,28.9818,-94.9186,1011.35,11111222 
TABS,ioos:station:wmo:42043:1,2013-03-04T21:30:00Z,28.9818,-94.9186,1011.45,11111222 
TABS,ioos:station:wmo:42043:1,2013-03-04T22:00:00Z,28.9818,-94.9186,1011.19,11111222 
TABS,ioos:station:wmo:42043:1,2013-03-04T22:30:00Z,28.9818,-94.9186,1010.59,11111222 
TABS,ioos:station:wmo:42043:1,2013-03-04T23:00:00Z,28.9818,-94.9186,1010.41,11111222 
TABS,ioos:station:wmo:42043:1,2013-03-04T23:30:00Z,28.9818,-94.9186,1010.62,11111222 
TABS,ioos:station:wmo:42043:1,2013-03-05T00:00:00Z,28.9818,-94.9186,1010.47,11111222 
TABS,ioos:station:wmo:42043:1,2013-03-05T00:30:00Z,28.9818,-94.9186,1010.08,11111222 
TABS,ioos:station:wmo:42043:1,2013-03-05T01:00:00Z,28.9818,-94.9186,1010.89,11111222 
TABS,ioos:station:wmo:42043:1,2013-03-05T01:30:00Z,28.9818,-94.9186,1010.27,11111222 
TABS,ioos:station:wmo:42043:1,2013-03-05T02:00:00Z,28.9818,-94.9186,1010.47,11111222 
TABS,ioos:station:wmo:42043:1,2013-03-05T02:30:00Z,28.9818,-94.9186,1010.06,11111222 
TABS,ioos:station:wmo:42043:1,2013-03-05T03:00:00Z,28.9818,-94.9186,1010.43,11111222 
TABS,ioos:station:wmo:42043:1,2013-03-05T03:30:00Z,28.9818,-94.9186,1010.57,11111222 
TABS,ioos:station:wmo:42043:1,2013-03-05T04:00:00Z,28.9818,-94.9186,1010.44,11111222 
TABS,ioos:station:wmo:42043:1,2013-03-05T04:30:00Z,28.9818,-94.9186,1010.46,11111222 
TABS,ioos:station:wmo:42043:1,2013-03-05T05:00:00Z,28.9818,-94.9186,1009.66,11111222 
TABS,ioos:station:wmo:42043:1,2013-03-05T05:30:00Z,28.9818,-94.9186,1009.75,11111222 
TABS,ioos:station:wmo:42043:1,2013-03-05T06:00:00Z,28.9818,-94.9186,1010.27,11111222 
TABS,ioos:station:wmo:42043:1,2013-03-05T06:30:00Z,28.9818,-94.9186,1010.29,11111222 
TABS,ioos:station:wmo:42043:1,2013-03-05T07:00:00Z,28.9818,-94.9186,1010.86,11111222 
TABS,ioos:station:wmo:42043:1,2013-03-05T07:30:00Z,28.9818,-94.9186,1010.78,11111222 
TABS,ioos:station:wmo:42043:1,2013-03-05T08:00:00Z,28.9818,-94.9186,1010.81,11111222 
TABS,ioos:station:wmo:42043:1,2013-03-05T08:30:00Z,28.9818,-94.9186,1010.56,11111222 
TABS,ioos:station:wmo:42043:1,2013-03-05T09:00:00Z,28.9818,-94.9186,1010.65,11111222 
TABS,ioos:station:wmo:42043:1,2013-03-05T09:30:00Z,28.9818,-94.9186,1010.65,11111222 
TABS,ioos:station:wmo:42043:1,2013-03-05T10:00:00Z,28.9818,-94.9186,1010.82,11111222 
TABS,ioos:station:wmo:42043:1,2013-03-05T10:30:00Z,28.9818,-94.9186,1010.8,11111222 
TABS,ioos:station:wmo:42043:1,2013-03-05T11:00:00Z,28.9818,-94.9186,1011.16,11111222 
TABS,ioos:station:wmo:42043:1,2013-03-05T11:30:00Z,28.9818,-94.9186,1011.64,11111222 
TABS,ioos:station:wmo:42043:1,2013-03-05T12:00:00Z,28.9818,-94.9186,1015.99,11111222 
TABS,ioos:station:wmo:42043:1,2013-03-05T12:30:00Z,28.9818,-94.9186,1015.59,11111222 
TABS,ioos:station:wmo:42043:1,2013-03-05T13:00:00Z,28.9818,-94.9186,1016.74,11111222 
TABS,ioos:station:wmo:42043:1,2013-03-05T13:30:00Z,28.9818,-94.9186,1017.05,11111222 
TABS,ioos:station:wmo:42043:1,2013-03-05T14:00:00Z,28.9818,-94.9186,1017.49,11111222 
TABS,ioos:station:wmo:42043:1,2013-03-05T14:30:00Z,28.9818,-94.9186,1017.72,11111222 
TABS,ioos:station:wmo:42043:1,2013-03-05T15:00:00Z,28.9818,-94.9186,1018.38,11111222 
TABS,ioos:station:wmo:42043:1,2013-03-05T15:30:00Z,28.9818,-94.9186,1018.43,11111222 
TABS,ioos:station:wmo:42043:1,2013-03-05T16:00:00Z,28.9818,-94.9186,1019.56,11111222 
TABS,ioos:station:wmo:42043:1,2013-03-05T16:30:00Z,28.9818,-94.9186,1020.1,11111222 
TABS,ioos:station:wmo:42043:1,2013-03-05T17:00:00Z,28.9818,-94.9186,1020.63,11111222 
TABS,ioos:station:wmo:42043:1,2013-03-05T17:30:00Z,28.9818,-94.9186,1020.58,11111222 
TABS,ioos:station:wmo:42043:1,2013-03-05T18:00:00Z,28.9818,-94.9186,1020.26,11111222 
TABS,ioos:station:wmo:42043:1,2013-03-05T18:30:00Z,28.9818,-94.9186,1019.65,11111222 
TABS,ioos:station:wmo:42043:1,2013-03-05T19:00:00Z,28.9818,-94.9186,1020.08,11111222 
TABS,ioos:station:wmo:42043:1,2013-03-05T19:30:00Z,28.9818,-94.9186,1020.29,11111222 
TABS,ioos:station:wmo:42043:1,2013-03-05T20:00:00Z,28.9818,-94.9186,1020.39,11111222 
TABS,ioos:station:wmo:42043:1,2013-03-05T20:30:00Z,28.9818,-94.9186,1020.39,11111222 
TABS,ioos:station:wmo:42043:1,2013-03-05T21:00:00Z,28.9818,-94.9186,1020.57,11111222 
TABS,ioos:station:wmo:42043:1,2013-03-05T21:30:00Z,28.9818,-94.9186,1020.97,11111222 
TABS,ioos:station:wmo:42043:1,2013-03-05T22:00:00Z,28.9818,-94.9186,1021.05,11111222 
TABS,ioos:station:wmo:42043:1,2013-03-05T22:30:00Z,28.9818,-94.9186,1020.67,11111222 
TABS,ioos:station:wmo:42043:1,2013-03-05T23:00:00Z,28.9818,-94.9186,1021.11,11111222 
TABS,ioos:station:wmo:42043:1,2013-03-05T23:30:00Z,28.9818,-94.9186,1021.1,11111222 
TABS,ioos:station:wmo:42043:1,2013-03-06T00:00:00Z,28.9818,-94.9186,1021.89,11111222 
TABS,ioos:station:wmo:42043:1,2013-03-06T00:30:00Z,28.9818,-94.9186,1021.61,11111222 
TABS,ioos:station:wmo:42043:1,2013-03-06T01:00:00Z,28.9818,-94.9186,1022.47,11111222 
TABS,ioos:station:wmo:42043:1,2013-03-06T01:30:00Z,28.9818,-94.9186,1022.82,11111222 
TABS,ioos:station:wmo:42043:1,2013-03-06T02:00:00Z,28.9818,-94.9186,1023.08,11111222 
TABS,ioos:station:wmo:42043:1,2013-03-06T02:30:00Z,28.9818,-94.9186,1023.56,11111222 
TABS,ioos:station:wmo:42043:1,2013-03-06T03:00:00Z,28.9818,-94.9186,1023.82,11111222 
TABS,ioos:station:wmo:42043:1,2013-03-06T03:30:00Z,28.9818,-94.9186,1024.38,11111222 
TABS,ioos:station:wmo:42043:1,2013-03-06T04:00:00Z,28.9818,-94.9186,1024.18,11111222 
TABS,ioos:station:wmo:42043:1,2013-03-06T04:30:00Z,28.9818,-94.9186,1024.5,11111222 
TABS,ioos:station:wmo:42043:1,2013-03-06T05:00:00Z,28.9818,-94.9186,1024.75,11111222 
TABS,ioos:station:wmo:42043:1,2013-03-06T05:30:00Z,28.9818,-94.9186,1024.97,11111222 
TABS,ioos:station:wmo:42043:1,2013-03-06T06:00:00Z,28.9818,-94.9186,1024.85,11111222 
TABS,ioos:station:wmo:42043:1,2013-03-06T06:30:00Z,28.9818,-94.9186,1025.45,11111222 
TABS,ioos:station:wmo:42043:1,2013-03-06T07:00:00Z,28.9818,-94.9186,1025.14,11111222 
TABS,ioos:station:wmo:42043:1,2013-03-06T07:30:00Z,28.9818,-94.9186,1025.48,11111222 
TABS,ioos:station:wmo:42043:1,2013-03-06T08:00:00Z,28.9818,-94.9186,1025.53,11111222 
TABS,ioos:station:wmo:42043:1,2013-03-06T08:30:00Z,28.9818,-94.9186,1025.62,11111222 
TABS,ioos:station:wmo:42043:1,2013-03-06T09:00:00Z,28.9818,-94.9186,1025.38,11111222 
TABS,ioos:station:wmo:42043:1,2013-03-06T09:30:00Z,28.9818,-94.9186,1025.09,11111222 
TABS,ioos:station:wmo:42043:1,2013-03-06T10:00:00Z,28.9818,-94.9186,1025.52,11111222 
TABS,ioos:station:wmo:42043:1,2013-03-06T10:30:00Z,28.9818,-94.9186,1025.65,11111222 
TABS,ioos:station:wmo:42043:1,2013-03-06T11:00:00Z,28.9818,-94.9186,1025.7,11111222 
TABS,ioos:station:wmo:42043:1,2013-03-06T11:30:00Z,28.9818,-94.9186,1026.38,11111222 
TABS,ioos:station:wmo:42043:1,2013-03-06T12:00:00Z,28.9818,-94.9186,1026.53,11111222 
TABS,ioos:station:wmo:42043:1,2013-03-06T12:30:00Z,28.9818,-94.9186,1026.73,11111222 
TABS,ioos:station:wmo:42043:1,2013-03-06T13:00:00Z,28.9818,-94.9186,1027.32,11111222 
TABS,ioos:station:wmo:42043:1,2013-03-06T13:30:00Z,28.9818,-94.9186,1027.42,11111222 
TABS,ioos:station:wmo:42043:1,2013-03-06T14:00:00Z,28.9818,-94.9186,1028.62,11111222 
TABS,ioos:station:wmo:42043:1,2013-03-06T14:30:00Z,28.9818,-94.9186,1028.93,11111222 
TABS,ioos:station:wmo:42043:1,2013-03-06T15:00:00Z,28.9818,-94.9186,1028.98,11111222 
TABS,ioos:station:wmo:42043:1,2013-03-06T15:30:00Z,28.9818,-94.9186,1029.43,11111222 
TABS,ioos:station:wmo:42043:1,2013-03-06T16:00:00Z,28.9818,-94.9186,1029.34,11111222 
TABS,ioos:station:wmo:42043:1,2013-03-06T16:30:00Z,28.9818,-94.9186,1029.44,11111222 
TABS,ioos:station:wmo:42043:1,2013-03-06T17:00:00Z,28.9818,-94.9186,1029.2,11111222 
TABS,ioos:station:wmo:42043:1,2013-03-06T17:30:00Z,28.9818,-94.9186,1029.13,11111222 
TABS,ioos:station:wmo:42043:1,2013-03-06T18:00:00Z,28.9818,-94.9186,1028.66,11111222 
TABS,ioos:station:wmo:42043:1,2013-03-06T18:30:00Z,28.9818,-94.9186,1028.06,11111222 